Location: Madrid
(40.4000°N, 3.6830°W)
Time: 07:31:08
(UTC+01:00)

ISS - Pass Details

Date: 29 November 2020
Orbit: 418 x 420 km, 51.6° (Epoch: 04 December)

Event Time Altitude Azimuth Distance (km) Brightness Sun altitude
Rises 18:58:35 0° 299° (WNW) 2,363 0.7 -13.0°
Reaches altitude 10° 19:01:44 10° 331° (NNW) 1,499 -0.8 -13.5°
Maximum altitude 19:03:12 12° 357° (N) 1,368 -1.3 -13.8°
Enters shadow 19:04:11 11° 16° (NNE) 1,429 -1.4 -14.0°
